Time,TemperatureF,DewpointF,PressureIn,WindDirection,WindDirectionDegrees,WindSpeedMPH,WindSpeedGustMPH,Humidity,HourlyPrecipIn,Conditions,Clouds,dailyrainin,SolarRadiationWatts/m^2,SoftwareType,DateUTC
2013-03-22 00:02:00,21.0,9.0,-100.00,SE,138,6.0,11.0,58,0.00,,,0.02,0.000000,,2013-03-22 06:02:00,
2013-03-22 00:12:00,21.0,9.0,-100.00,SE,138,6.0,11.0,58,0.00,,,0.02,0.000000,,2013-03-22 06:12:00,
2013-03-22 00:43:00,19.0,9.0,-100.00,South,177,6.0,9.0,64,0.00,,,0.02,0.000000,,2013-03-22 06:43:00,
2013-03-22 00:52:00,19.0,9.0,-100.00,South,177,6.0,9.0,64,0.00,,,0.02,0.000000,,2013-03-22 06:52:00,
2013-03-22 01:02:00,19.0,9.0,-100.00,South,177,6.0,9.0,64,0.00,,,0.02,0.000000,,2013-03-22 07:02:00,
2013-03-22 01:11:00,19.0,9.0,-100.00,South,177,6.0,9.0,64,0.00,,,0.02,0.000000,,2013-03-22 07:11:00,
2013-03-22 01:42:00,20.0,10.0,-100.00,SE,139,2.0,8.0,65,0.00,,,0.02,0.000000,,2013-03-22 07:42:00,
2013-03-22 01:52:00,20.0,10.0,-100.00,SE,139,2.0,8.0,65,0.00,,,0.02,0.000000,,2013-03-22 07:52:00,
2013-03-22 02:02:00,20.0,10.0,-100.00,SE,139,2.0,8.0,65,0.00,,,0.02,0.000000,,2013-03-22 08:02:00,
2013-03-22 02:12:00,20.0,10.0,-100.00,SE,139,2.0,8.0,65,0.00,,,0.02,0.000000,,2013-03-22 08:12:00,
2013-03-22 02:42:00,18.0,9.0,-100.00,ESE,115,4.0,7.0,68,0.00,,,0.02,0.000000,,2013-03-22 08:42:00,
2013-03-22 02:52:00,18.0,9.0,-100.00,ESE,115,4.0,7.0,68,0.00,,,0.02,0.000000,,2013-03-22 08:52:00,
2013-03-22 03:02:00,18.0,9.0,-100.00,ESE,115,4.0,7.0,68,0.00,,,0.02,0.000000,,2013-03-22 09:02:00,
2013-03-22 03:12:00,18.0,9.0,-100.00,ESE,115,4.0,7.0,68,0.00,,,0.02,0.000000,,2013-03-22 09:12:00,
2013-03-22 03:42:00,16.0,8.0,-100.00,SSE,167,4.0,7.0,70,0.00,,,0.02,0.000000,,2013-03-22 09:42:00,
2013-03-22 03:53:00,16.0,8.0,-100.00,SSE,167,4.0,7.0,70,0.00,,,0.02,0.000000,,2013-03-22 09:53:00,
2013-03-22 04:03:00,16.0,8.0,-100.00,SSE,167,4.0,7.0,70,0.00,,,0.02,0.000000,,2013-03-22 10:03:00,
2013-03-22 04:12:00,16.0,8.0,-100.00,SSE,167,4.0,7.0,70,0.00,,,0.02,0.000000,,2013-03-22 10:12:00,
2013-03-22 04:42:00,16.0,9.0,-100.00,SE,130,3.0,6.0,75,0.00,,,0.02,0.000000,,2013-03-22 10:42:00,
2013-03-22 04:52:00,16.0,9.0,-100.00,SE,130,3.0,6.0,75,0.00,,,0.02,0.000000,,2013-03-22 10:52:00,
2013-03-22 05:02:00,16.0,9.0,-100.00,SE,130,3.0,6.0,75,0.00,,,0.02,0.000000,,2013-03-22 11:02:00,
2013-03-22 05:12:00,16.0,9.0,-100.00,SE,130,3.0,6.0,75,0.00,,,0.02,0.000000,,2013-03-22 11:12:00,
2013-03-22 05:42:00,14.0,8.0,-100.00,NE,49,0.0,5.0,76,0.00,,,0.02,0.000000,,2013-03-22 11:42:00,
2013-03-22 05:52:00,14.0,8.0,-100.00,NE,49,0.0,5.0,76,0.00,,,0.02,0.000000,,2013-03-22 11:52:00,
2013-03-22 06:02:00,14.0,8.0,-100.00,NE,49,0.0,5.0,76,0.00,,,0.02,0.000000,,2013-03-22 12:02:00,
2013-03-22 06:12:00,14.0,8.0,-100.00,NE,49,0.0,5.0,76,0.00,,,0.02,0.000000,,2013-03-22 12:12:00,
2013-03-22 06:42:00,14.0,9.0,-100.00,SE,129,3.0,5.0,79,0.00,,,0.02,0.000000,,2013-03-22 12:42:00,
2013-03-22 06:52:00,14.0,9.0,-100.00,SE,129,3.0,5.0,79,0.00,,,0.02,0.000000,,2013-03-22 12:52:00,
2013-03-22 07:02:00,14.0,9.0,-100.00,SE,129,3.0,5.0,79,0.00,,,0.02,0.000000,,2013-03-22 13:02:00,
2013-03-22 07:12:00,14.0,9.0,-100.00,SE,129,3.0,5.0,79,0.00,,,0.02,0.000000,,2013-03-22 13:12:00,
2013-03-22 07:42:00,14.0,8.0,-100.00,SE,146,4.0,7.0,77,0.00,,,0.02,0.000000,,2013-03-22 13:42:00,
2013-03-22 07:52:00,14.0,8.0,-100.00,SE,146,4.0,7.0,77,0.00,,,0.02,0.000000,,2013-03-22 13:52:00,
2013-03-22 08:02:00,14.0,8.0,-100.00,SE,146,4.0,7.0,77,0.00,,,0.02,0.000000,,2013-03-22 14:02:00,
2013-03-22 08:12:00,14.0,8.0,-100.00,SE,146,4.0,7.0,77,0.00,,,0.02,0.000000,,2013-03-22 14:12:00,
2013-03-22 08:43:00,16.0,10.0,-100.00,ENE,58,1.0,5.0,77,0.00,,,0.02,22.000000,,2013-03-22 14:43:00,
2013-03-22 08:52:00,16.0,10.0,-100.00,ENE,58,1.0,5.0,77,0.00,,,0.02,22.000000,,2013-03-22 14:52:00,
2013-03-22 09:02:00,16.0,10.0,-100.00,ENE,58,1.0,5.0,77,0.00,,,0.02,22.000000,,2013-03-22 15:02:00,
2013-03-22 09:11:00,16.0,10.0,-100.00,ENE,58,1.0,5.0,77,0.00,,,0.02,22.000000,,2013-03-22 15:11:00,
2013-03-22 09:43:00,17.0,10.0,-100.00,SSW,210,3.0,7.0,73,0.00,,,0.02,85.000000,,2013-03-22 15:43:00,
2013-03-22 09:53:00,17.0,10.0,-100.00,SSW,210,3.0,7.0,73,0.00,,,0.02,85.000000,,2013-03-22 15:53:00,
2013-03-22 10:02:00,17.0,10.0,-100.00,SSW,210,3.0,7.0,73,0.00,,,0.02,85.000000,,2013-03-22 16:02:00,
2013-03-22 10:13:00,17.0,10.0,-100.00,SSW,210,3.0,7.0,73,0.00,,,0.02,85.000000,,2013-03-22 16:13:00,
2013-03-22 10:42:00,20.0,11.0,-100.00,WNW,295,2.0,6.0,68,0.00,,,0.02,206.000000,,2013-03-22 16:42:00,
2013-03-22 10:52:00,20.0,11.0,-100.00,WNW,295,2.0,6.0,68,0.00,,,0.02,206.000000,,2013-03-22 16:52:00,
2013-03-22 11:03:00,20.0,11.0,-100.00,WNW,295,2.0,6.0,68,0.00,,,0.02,206.000000,,2013-03-22 17:03:00,
2013-03-22 11:12:00,20.0,11.0,-100.00,WNW,295,2.0,6.0,68,0.00,,,0.02,206.000000,,2013-03-22 17:12:00,
2013-03-22 11:42:00,26.0,11.0,-100.00,SSW,207,3.0,7.0,52,0.00,,,0.01,604.000000,,2013-03-22 17:42:00,
2013-03-22 11:53:00,26.0,11.0,-100.00,SSW,207,3.0,7.0,52,0.00,,,0.01,604.000000,,2013-03-22 17:53:00,
2013-03-22 12:02:00,26.0,11.0,-100.00,SSW,207,3.0,7.0,52,0.00,,,0.01,604.000000,,2013-03-22 18:02:00,
2013-03-22 12:12:00,26.0,11.0,-100.00,SSW,207,3.0,7.0,52,0.00,,,0.01,604.000000,,2013-03-22 18:12:00,
2013-03-22 12:42:00,28.0,12.0,-100.00,West,265,3.0,8.0,51,0.00,,,0.00,613.000000,,2013-03-22 18:42:00,
2013-03-22 12:52:00,28.0,12.0,-100.00,West,265,3.0,8.0,51,0.00,,,0.00,613.000000,,2013-03-22 18:52:00,
2013-03-22 13:02:00,28.0,12.0,-100.00,West,265,3.0,8.0,51,0.00,,,0.00,613.000000,,2013-03-22 19:02:00,
2013-03-22 13:12:00,28.0,12.0,-100.00,West,265,3.0,8.0,51,0.00,,,0.00,613.000000,,2013-03-22 19:12:00,
2013-03-22 13:43:00,27.0,9.0,-100.00,NNW,347,9.0,17.0,45,0.00,,,0.00,817.000000,,2013-03-22 19:43:00,
2013-03-22 13:52:00,27.0,9.0,-100.00,NNW,347,9.0,17.0,45,0.00,,,0.00,817.000000,,2013-03-22 19:52:00,
2013-03-22 14:02:00,27.0,9.0,-100.00,NNW,347,9.0,17.0,45,0.00,,,0.00,817.000000,,2013-03-22 20:02:00,
2013-03-22 14:12:00,27.0,9.0,-100.00,NNW,347,9.0,17.0,45,0.00,,,0.00,817.000000,,2013-03-22 20:12:00,
2013-03-22 14:43:00,27.0,14.0,-100.00,NNW,344,7.0,10.0,58,0.00,,,0.00,455.000000,,2013-03-22 20:43:00,
2013-03-22 14:52:00,27.0,14.0,-100.00,NNW,344,7.0,10.0,58,0.00,,,0.00,455.000000,,2013-03-22 20:52:00,
2013-03-22 15:02:00,27.0,14.0,-100.00,NNW,344,7.0,10.0,58,0.00,,,0.00,455.000000,,2013-03-22 21:02:00,
2013-03-22 15:12:00,27.0,14.0,-100.00,NNW,344,7.0,10.0,58,0.00,,,0.00,455.000000,,2013-03-22 21:12:00,
2013-03-22 15:43:00,21.0,11.0,-100.00,NNW,346,11.0,19.0,65,0.00,,,0.00,292.000000,,2013-03-22 21:43:00,
2013-03-22 15:53:00,21.0,11.0,-100.00,NNW,346,11.0,19.0,65,0.00,,,0.00,292.000000,,2013-03-22 21:53:00,
2013-03-22 16:02:00,21.0,11.0,-100.00,NNW,346,11.0,19.0,65,0.00,,,0.00,292.000000,,2013-03-22 22:02:00,
2013-03-22 16:12:00,21.0,11.0,-100.00,NNW,346,11.0,19.0,65,0.00,,,0.00,292.000000,,2013-03-22 22:12:00,
2013-03-22 16:43:00,25.0,13.0,-100.00,South,177,3.0,11.0,61,0.00,,,0.00,213.000000,,2013-03-22 22:43:00,
2013-03-22 16:53:00,25.0,13.0,-100.00,South,177,3.0,11.0,61,0.00,,,0.00,213.000000,,2013-03-22 22:53:00,
2013-03-22 17:02:00,25.0,13.0,-100.00,South,177,3.0,11.0,61,0.00,,,0.00,213.000000,,2013-03-22 23:02:00,
2013-03-22 17:12:00,25.0,13.0,-100.00,South,177,3.0,11.0,61,0.00,,,0.00,213.000000,,2013-03-22 23:12:00,
2013-03-22 17:42:00,25.0,10.0,-100.00,West,273,6.0,10.0,52,0.00,,,0.00,222.000000,,2013-03-22 23:42:00,
2013-03-22 17:52:00,25.0,10.0,-100.00,West,273,6.0,10.0,52,0.00,,,0.00,222.000000,,2013-03-22 23:52:00,
2013-03-22 18:02:00,25.0,10.0,-100.00,West,273,6.0,10.0,52,0.00,,,0.00,222.000000,,2013-03-23 00:02:00,
2013-03-22 18:12:00,25.0,10.0,-100.00,West,273,6.0,10.0,52,0.00,,,0.00,222.000000,,2013-03-23 00:12:00,
2013-03-22 18:42:00,21.0,18.0,-100.00,WSW,251,2.0,16.0,87,0.00,,,0.00,44.000000,,2013-03-23 00:42:00,
2013-03-22 18:52:00,21.0,18.0,-100.00,WSW,251,2.0,16.0,87,0.00,,,0.00,44.000000,,2013-03-23 00:52:00,
2013-03-22 19:11:00,21.0,18.0,-100.00,WSW,251,2.0,16.0,87,0.00,,,0.00,44.000000,,2013-03-23 01:11:00,
2013-03-22 19:43:00,20.0,15.0,-100.00,South,182,4.0,5.0,81,0.00,,,0.00,60.000000,,2013-03-23 01:43:00,
2013-03-22 19:52:00,20.0,15.0,-100.00,South,182,4.0,5.0,81,0.00,,,0.00,60.000000,,2013-03-23 01:52:00,
2013-03-22 20:02:00,20.0,15.0,-100.00,South,182,4.0,5.0,81,0.00,,,0.00,60.000000,,2013-03-23 02:02:00,
2013-03-22 20:12:00,20.0,15.0,-100.00,South,182,4.0,5.0,81,0.00,,,0.00,60.000000,,2013-03-23 02:12:00,
2013-03-22 20:42:00,20.0,16.0,-100.00,NW,320,4.0,8.0,84,0.00,,,0.00,7.000000,,2013-03-23 02:42:00,
2013-03-22 20:52:00,20.0,16.0,-100.00,NW,320,4.0,8.0,84,0.00,,,0.00,7.000000,,2013-03-23 02:52:00,
2013-03-22 21:02:00,20.0,16.0,-100.00,NW,320,4.0,8.0,84,0.00,,,0.00,7.000000,,2013-03-23 03:02:00,
2013-03-22 21:11:00,20.0,16.0,-100.00,NW,320,4.0,8.0,84,0.00,,,0.00,7.000000,,2013-03-23 03:11:00,
2013-03-22 21:43:00,19.0,17.0,-100.00,SSE,161,1.0,4.0,90,0.00,,,0.00,0.000000,,2013-03-23 03:43:00,
2013-03-22 21:53:00,19.0,17.0,-100.00,SSE,161,1.0,4.0,90,0.00,,,0.00,0.000000,,2013-03-23 03:53:00,
2013-03-22 22:02:00,19.0,17.0,-100.00,SSE,161,1.0,4.0,90,0.00,,,0.00,0.000000,,2013-03-23 04:02:00,
2013-03-22 22:12:00,19.0,17.0,-100.00,SSE,161,1.0,4.0,90,0.00,,,0.00,0.000000,,2013-03-23 04:12:00,
2013-03-22 22:43:00,18.0,16.0,-100.00,South,173,3.0,4.0,90,0.00,,,0.00,0.000000,,2013-03-23 04:43:00,
2013-03-22 22:53:00,18.0,16.0,-100.00,South,173,3.0,4.0,90,0.00,,,0.00,0.000000,,2013-03-23 04:53:00,
2013-03-22 23:02:00,18.0,16.0,-100.00,South,173,3.0,4.0,90,0.00,,,0.00,0.000000,,2013-03-23 05:02:00,
2013-03-22 23:12:00,18.0,16.0,-100.00,South,173,3.0,4.0,90,0.00,,,0.00,0.000000,,2013-03-23 05:12:00,
2013-03-22 23:42:00,18.0,16.0,-100.00,NNW,331,2.0,4.0,90,0.00,,,0.00,0.000000,,2013-03-23 05:42:00,
2013-03-22 23:52:00,18.0,16.0,-100.00,NNW,331,2.0,4.0,90,0.00,,,0.00,0.000000,,2013-03-23 05:52:00,